Regional Weather Roundup
Issued by NWS

Home | Current Version | Previous Version | Text Only | Print | Product List | Glossary Off
Versions: 1 2 3 4 5 6 7 8 9 10 11 12 13 14 15 16 17 18 19 20 21 22 23 24 25 26 27 28 29 30 31 32 33 34 35 36 37 38 39 40 41 42 43 44 45 46 47 48 49 50

000
ASUS43 KOAX 010910
RWRNE

WEATHER ROUNDUP FOR NEBRASKA
NATIONAL WEATHER SERVICE OMAHA NE
400 AM CDT TUE SEP 01 2015

NOTES: SATELLITE DATA IS BEING USED TO AUGMENT CLOUD COVER ABOVE
       12000 FEET.
       "FAIR" INDICATES FEW OR NO CLOUDS BELOW 12,000 FEET WITH NO
       SIGNIFICANT WEATHER AND/OR OBSTRUCTIONS TO VISIBILITY.

  * THESE STATIONS DO NOT REPORT WEATHER SUCH AS RAIN...SNOW OR FOG.

NEZ001>004-019>022-054>056-011000-
NEBRASKA PANHANDLE

CITY           SKY/WX    TMP DP  RH WIND       PRES   REMARKS
SCOTTSBLUFF    PTCLDY    58  54  86 CALM      29.99F
ALLIANCE       MOCLDY    57  51  80 VRB5      29.98F
CHADRON        PTCLDY    66  49  54 S12       29.92F
KIMBALL        PTCLDY    55  51  85 W8        30.04F
SIDNEY         MOCLDY    60  53  77 NW7       30.03F
$$

NEZ057>060-069>072-079>082-011000-
SOUTHWEST NEBRASKA

CITY           SKY/WX    TMP DP  RH WIND       PRES   REMARKS
NORTH PLATTE   CLOUDY    67  61  81 S3        29.91F
IMPERIAL       CLOUDY    66  62  87 CALM      29.94F
LEXINGTON      CLOUDY    71  58  65 S5        29.90S
MCCOOK         TSTM      73  61  65 NW8       29.92R
OGALLALA       CLOUDY    65  61  85 E3        29.93F
$$

NEZ005>010-023>029-035>040-094-011000-
NORTH CENTRAL NEBRASKA

CITY           SKY/WX    TMP DP  RH WIND       PRES   REMARKS
VALENTINE      CLOUDY    60  58  92 NW3       29.92F
AINSWORTH      CLOUDY    66  64  94 NW5       29.91F
BROKEN BOW     CLOUDY    67  64  90 E3        29.89F
O`NEILL        CLOUDY    69  68  96 CALM      29.89F
ORD            CLOUDY    69  65  86 SE7       29.88S
THEDFORD       CLOUDY    67  64  91 CALM      29.92F
$$

NEZ041-046>049-061>064-073>077-083>087-011000-
SOUTH CENTRAL NEBRASKA

CITY           SKY/WX    TMP DP  RH WIND       PRES   REMARKS
GRAND ISLAND   MOCLDY    67  63  87 S10       29.91S
AURORA         CLEAR     69  66  90 S9        29.90F
HASTINGS       PTCLDY    69  61  75 S8        29.91F
HEBRON         CLEAR     71  61  71 S7        29.93S
HOLDREGE       MOCLDY    71  55  57 S13       29.92S
KEARNEY *      MOCLDY    72  55  56 S14       29.91S
YORK           CLEAR     66  64  94 S8        29.92S
$$

NEZ011>018-030>034-042>045-011000-
NORTHEAST NEBRASKA

CITY           SKY/WX    TMP DP  RH WIND       PRES   REMARKS
NORFOLK        CLEAR     67  65  93 E5        29.89F
ALBION         PTCLDY    67  65  91 SE6       29.90S FOG
BLAIR          CLEAR     70  66  87 S8        29.93S
COLUMBUS *     CLEAR     72  63  73 S6        29.90F
FREMONT        CLEAR     72  67  85 SE6       29.91F
TEKAMAH        CLEAR     66  65  96 SE6       29.90F
WAYNE          CLEAR     67  65  95 S3        29.90S FOG
$$

NEZ050>053-065>068-078-088>093-011000-
SOUTHEAST NEBRASKA

CITY           SKY/WX    TMP DP  RH WIND       PRES   REMARKS
LINCOLN        CLEAR     70  66  87 S9        29.92F
OMAHA EPPLEY   CLEAR     71  68  90 S9        29.93S
BEATRICE       CLEAR     70  66  88 SE5       29.95S
FALLS CITY     CLEAR     73  68  84 S9        29.95S
NEBRASKA CITY  CLEAR     71  66  85 S10       29.95S
PLATTSMOUTH    CLEAR     70  66  87 S9        29.94S
$$

NEZ044-045-051>053-067-011000-
OMAHA AREA

CITY           SKY/WX    TMP DP  RH WIND       PRES   REMARKS
OMAHA EPPLEY   CLEAR     71  68  90 S9        29.93S
BLAIR          CLEAR     70  66  87 S8        29.93S
FREMONT        CLEAR     72  67  85 SE6       29.91F
MILLARD        CLEAR     70  68  94 CALM      29.92S
OFFUTT AFB     CLEAR     69  69  98 E5        29.92F
PLATTSMOUTH    CLEAR     70  66  87 S9        29.94S
WAHOO          FAIR      66  65  95 SE5       29.92S
$$



USA.gov is the U.S. government's official web portal to all federal, state and local government web resources and services.